Hourly Data Report for September 30, 2020

OTTAWA INTL A
ONTARIO
Current Station Operator: NAVCAN

45°19'00.000" N
75°40'00.000" W
114.90 m
6106001
71628
YOW

Download Data

Hourly Data (September 2020)
Hourly Data Report for September 30, 2020
TIME Temp Definition
°C
Dew Point Definition
°C
Rel Hum Definition
%
Wind Dir Definition
10's deg

Wind Spd Definition
km/h
Visibility Definition
km
Stn Press Definition
kPa
Hmdx Definition


Wind Chill Definition


Weather Definition


00:00 12.7 12.4 98 17 5 16.1 99.18     LegendNANA
01:00 12.5 12.2 98 17 3 8.1 99.04     Rain,Fog
02:00 12.4 12.2 99 23 5 6.4 98.90     Rain,Fog
03:00 12.0 11.6 97 29 11 9.7 98.72     Rain,Fog
04:00 11.7 11.2 97 31 8 9.7 98.58     Rain,Fog
05:00 11.6 11.3 98 27 10 6.4 98.56     Rain,Fog
06:00 11.4 10.9 97 29 22 8.1 98.52     Rain,Fog
07:00 10.7 9.7 93 32 19 24.1 98.44     Rain
08:00 11.2 10.2 93 27 13 24.1 98.45     LegendNANA
09:00 11.2 10.0 92 24 15 12.9 98.53     Rain
10:00 11.6 10.7 94 23 9 16.1 98.55     Rain
11:00 12.5 11.0 90 22 12 24.1 98.56     Rain
12:00 14.8 10.9 77 22 21 24.1 98.55     LegendNANA
13:00 15.8 10.2 69 19 21 24.1 98.52     Mostly Cloudy
14:00 13.0 9.7 80 21 26 24.1 98.54     LegendNANA
15:00 15.7 9.3 66 21 27 24.1 98.53     LegendNANA
16:00 15.4 9.7 68 20 26 24.1 98.57     Mostly Cloudy
17:00 13.4 10.2 81 21 23 24.1 98.62     LegendNANA
18:00 10.9 8.3 84 21 20 24.1 98.76     LegendNANA
19:00 10.2 8.6 89 20 15 24.1 98.85     Mostly Cloudy
20:00 11.7 8.9 83 23 15 24.1 98.85     LegendNANA
21:00 11.2 9.1 87 16 9 24.1 98.85     LegendNANA
22:00 10.9 9.8 93 17 10 24.1 98.86     Mostly Cloudy
23:00 11.3 10.0 92 18 18 24.1 98.89     LegendNANA

Notes on Data Quality.

Legend

  • E = Estimated
  • M = Missing
  • NA = Not Available*
  • [empty] = Indicates an unobserved value
Date modified: